[[{"header":{"parameterUnit":"m.s-1","parameterCategory":1,"la1":30.2991,"la2":30.254,"lo1":-89.0895,"lo2":-89.0444,"dy":0.0017,"dx":0.0017,"nx":28,"ny":28,"refTime":"2023-10-30T21:00:00:Z","depth":0,"parameterNumber":2,"parameterNumberName":"U-component_of_WINDS"},"data":[0,0,0,0,0,0,0,0,0,0,0,0,0,0,0,0,0,0,0,0,0,0,0,0,0,0,0,0,0,0,0,0,0,0,0,0,0,0,0,0,0,0,0,0,0,0,0,0,0,0,0,0,0,0,0,0,0,0,-1.5663,-1.5664,0,-1.576,-1.5761,-1.5762,-1.5715,-1.5712,-1.571,-1.5707,-1.5808,-1.5813,-1.5817,0,0,0,0,0,0,0,0,0,0,0,0,0,-1.5435,-1.5439,-1.5662,-1.5664,-1.5665,-1.576,-1.5761,-1.5762,-1.5715,-1.5712,-1.5709,-1.5706,-1.5806,-1.5812,-1.5818,0,0,0,0,0,0,0,0,0,0,0,0,0,-1.5533,-1.5441,-1.5662,-1.5653,-1.5653,-1.5759,-1.5761,-1.5763,-1.5716,-1.5712,-1.5708,-1.5705,-1.5804,-1.5811,-1.5819,-1.594,0,0,-1.5842,-1.5845,0,0,0,0,0,0,0,0,-1.5528,-1.5542,-1.5653,-1.5654,-1.5654,-1.5721,-1.5717,-1.5822,-1.5717,-1.5692,-1.5707,-1.5703,-1.5782,-1.5791,-1.5818,-1.5945,-1.5949,-1.5842,-1.5847,-1.585,-1.5852,0,0,0,0,0,0,0,-1.5521,-1.5537,-1.5701,-1.5655,-1.5655,-1.5643,-1.5653,-1.5737,-1.5757,-1.5694,-1.5691,-1.5703,-1.5782,-1.5811,-1.582,-1.5951,-1.5842,-1.5849,-1.5854,-1.5856,-1.6182,-1.6186,0,0,0,0,0,0,-1.5515,-1.5532,-1.5698,-1.5704,-1.558,-1.565,-1.5661,-1.5703,-1.5756,-1.576,-1.5706,-1.57,-1.58,-1.5811,-1.5823,-1.5969,-1.585,-1.5857,-1.5861,-1.6178,-1.6183,-1.6187,0,0,0,0,0,0,-1.551,-1.553,-1.5694,-1.5617,-1.5637,-1.5658,-1.5706,-1.5707,-1.5736,-1.5765,-1.5768,-1.5732,-1.5797,-1.5812,-1.5911,-1.5972,-1.5861,-1.5867,-1.6173,-1.6179,-1.6185,-1.6262,0,0,0,0,0,0,-1.5504,-1.5528,-1.5575,-1.5618,-1.5641,-1.5781,-1.571,-1.5712,-1.5749,-1.5743,-1.579,-1.5795,-1.5795,-1.59,-1.5919,-1.598,-1.5873,-1.6168,-1.6176,-1.6183,-1.6255,-1.6271,-1.6284,0,0,0,0,0,-1.5496,-1.5594,-1.5578,-1.5598,-1.57,-1.5785,-1.5798,-1.5797,-1.5754,-1.5802,-1.5819,-1.5793,-1.5962,-1.5911,-1.5931,-1.5996,-1.6164,-1.6174,-1.6183,-1.6248,-1.6267,-1.6284,0,0,0,0,0,0,-1.5558,-1.5599,-1.5582,-1.5697,-1.5738,-1.5777,-1.5837,-1.5817,-1.5871,-1.5863,-1.5859,-1.587,-1.5973,-1.5993,-1.5936,-1.6116,-1.6056,-1.607,-1.6099,-1.6118,-1.6132,-1.6126,-1.588,0,0,0,0,0,-1.5585,-1.565,-1.5682,-1.5781,-1.5802,-1.5816,-1.5852,-1.5847,-1.589,-1.5907,-1.5932,-1.5974,-1.6036,-1.6078,-1.6136,-1.6256,-1.6266,-1.631,-1.6325,-1.6337,-1.635,-1.6415,-1.6435,-1.6218,-1.6218,-1.6218,0,0,-1.5642,-1.5672,-1.5714,-1.5794,-1.5825,-1.5893,-1.5831,-1.5905,-1.5955,-1.5918,-1.6014,-1.6033,-1.6079,-1.6189,-1.6239,-1.621,-1.6411,-1.6349,-1.6358,-1.6365,-1.6426,-1.6447,-1.6465,-1.6224,-1.6223,-1.6222,0,0,-1.578,-1.5809,-1.5895,-1.5926,-1.5974,-1.5982,-1.6002,-1.6044,-1.6055,-1.615,-1.6124,-1.6182,-1.629,-1.6324,-1.6356,-1.6504,-1.6482,-1.6523,-1.6601,-1.6664,-1.6681,-1.6696,-1.675,-1.677,-1.6535,-1.6535,-1.6535,0,-1.5845,-1.5947,-1.5941,-1.6017,-1.6053,-1.6021,-1.6107,-1.6138,-1.6202,-1.6228,-1.6194,-1.6327,-1.6356,-1.6473,-1.6509,-1.6535,-1.6559,-1.6519,-1.6679,-1.6694,-1.6708,-1.676,-1.678,-1.654,-1.6539,-1.6539,-1.6538,0,-1.6024,-1.6095,-1.6157,-1.622,-1.6262,-1.6343,-1.635,-1.6393,-1.6383,-1.6395,-1.6492,-1.6524,-1.6589,-1.6616,-1.6608,-1.6732,-1.6713,-1.6679,-1.662,-1.6734,-1.6782,-1.6802,-1.6547,-1.6545,-1.6544,-1.6543,0,0,-1.6209,-1.6265,-1.6288,-1.6316,-1.6364,-1.6419,-1.6497,-1.656,-1.6598,-1.6642,-1.6708,-1.6798,-1.6767,-1.6802,-1.6797,-1.6852,-1.6968,-1.6811,-1.6812,-1.6841,-1.7107,-1.7134,-1.7157,-1.6952,-1.6956,-1.6959,-1.7104,0,-1.6352,-1.649,-1.6486,-1.6615,-1.668,-1.6648,-1.6717,-1.6753,-1.6765,-1.6822,-1.6834,-1.6899,-1.6852,-1.6874,-1.6926,-1.6943,-1.7022,-1.6932,-1.7014,-1.7017,-1.7006,-1.7182,-1.7211,-1.7347,-1.7123,-1.7126,-1.7128,0,-1.6539,-1.6589,-1.6724,-1.6762,-1.6789,-1.685,-1.6907,-1.6961,-1.7001,-1.7006,-1.7044,-1.703,-1.7109,-1.7044,-1.7153,-1.7092,-1.7125,-1.7138,-1.7143,-1.7153,-1.7082,-1.7199,-1.739,-1.7411,-1.7158,-1.7155,-1.7153,0,-1.6661,-1.6762,-1.6856,-1.688,-1.6926,-1.697,-1.6991,-1.7028,-1.7066,-1.7114,-1.7139,-1.7196,-1.7228,-1.7272,-1.7273,-1.7226,-1.7383,-1.7319,-1.739,-1.739,-1.7427,-1.7426,-1.7629,-1.7445,-1.7444,-1.7444,-1.7444,0,-1.6823,-1.6908,-1.6912,-1.697,-1.7063,-1.7056,-1.7148,-1.7165,-1.7197,-1.7257,-1.7233,-1.729,-1.7286,-1.7344,-1.7344,-1.7435,-1.7449,-1.7455,-1.7455,-1.7459,-1.7458,-1.7482,-1.7474,-1.7449,-1.7448,-1.7447,-1.7446,0,-1.6978,-1.6984,-1.7084,-1.7119,-1.7129,-1.7196,-1.7226,-1.728,-1.7288,-1.7365,-1.7383,-1.7396,-1.7462,-1.7466,-1.7543,-1.7543,-1.7653,-1.7641,-1.764,-1.7639,-1.771,-1.7704,-1.7938,-1.7969,-1.7762,-1.7764,-1.7766,0,-1.7082,-1.7146,-1.7187,-1.7226,-1.7249,-1.7312,-1.7349,-1.7344,-1.7384,-1.7434,-1.7483,-1.7546,-1.7597,-1.7704,-1.7721,-1.7779,-1.7769,-1.7847,-1.7778,-1.778,-1.7772,-1.7769,-1.7776,-1.7862,-1.7864,-1.7866,-1.7867,0,-1.7267,-1.7267,-1.7322,-1.7379,-1.7424,-1.7469,-1.751,-1.7542,-1.7542,-1.7588,-1.7655,-1.7695,-1.7772,-1.7835,-1.7891,-1.7912,-1.789,-1.7888,-1.7908,-1.7914,-1.7911,-1.7915,-1.7679,-1.7884,-1.7882,-1.7881,-1.788,-1.7879,-1.7401,-1.7457,-1.7494,-1.7556,-1.7586,-1.7624,-1.7678,-1.7692,-1.7748,-1.781,-1.7803,-1.7878,-1.7914,-1.7987,-1.8012,-1.807,-1.8044,-1.8072,-1.808,-1.8087,-1.8096,-1.79,-1.808,-1.808,-1.8079,-1.8079,-1.8078,0,-1.7587,-1.7608,-1.7666,-1.7723,-1.7772,-1.7745,-1.7788,-1.7831,-1.7897,-1.7933,-1.7983,-1.806,-1.812,-1.814,-1.8199,-1.8242,-1.8233,-1.8257,-1.8256,-1.8261,-1.8115,-1.8093,-1.8263,-1.8263,-1.8263,-1.8263,-1.8263,-1.8263,-1.7689,-1.7781,-1.7785,-1.7891,-1.7911,-1.7984,-1.8011,-1.8046,-1.8075,-1.8162,-1.8212,-1.8224,-1.8253,-1.8314,-1.8368,-1.8372,-1.8396,-1.8425,-1.8425,-1.829,-1.8271,-1.8253,-1.8233,-1.843,-1.843,-1.8566,-1.8567,-1.8568]},{"header":{"parameterUnit":"m.s-1","parameterCategory":1,"la1":30.2991,"la2":30.254,"lo1":-89.0895,"lo2":-89.0444,"dy":0.0017,"dx":0.0017,"nx":28,"ny":28,"refTime":"2023-10-30T21:00:00:Z","depth":0,"parameterNumber":3,"parameterNumberName":"V-component_of_WINDS"},"data":[0,0,0,0,0,0,0,0,0,0,0,0,0,0,0,0,0,0,0,0,0,0,0,0,0,0,0,0,0,0,0,0,0,0,0,0,0,0,0,0,0,0,0,0,0,0,0,0,0,0,0,0,0,0,0,0,0,0,-9.3202,-9.3204,0,-9.3414,-9.3416,-9.3419,-9.3306,-9.33,-9.3295,-9.3289,-9.3498,-9.3509,-9.3519,0,0,0,0,0,0,0,0,0,0,0,0,0,-9.2691,-9.2701,-9.3202,-9.3205,-9.3207,-9.3414,-9.3416,-9.3419,-9.3307,-9.33,-9.3293,-9.3287,-9.3495,-9.3507,-9.352,0,0,0,0,0,0,0,0,0,0,0,0,0,-9.2909,-9.2705,-9.3201,-9.3176,-9.3176,-9.3413,-9.3417,-9.342,-9.3309,-9.33,-9.3291,-9.3284,-9.349,-9.3506,-9.3522,-9.3793,0,0,-9.3572,-9.3579,0,0,0,0,0,0,0,0,-9.2897,-9.2928,-9.3177,-9.3179,-9.3179,-9.3325,-9.3313,-9.3545,-9.3311,-9.3258,-9.3289,-9.3279,-9.3447,-9.3466,-9.3524,-9.3803,-9.3812,-9.3573,-9.3583,-9.359,-9.3595,0,0,0,0,0,0,0,-9.2882,-9.2918,-9.3285,-9.3181,-9.3182,-9.3151,-9.3173,-9.3356,-9.3397,-9.3262,-9.3254,-9.3281,-9.3445,-9.3509,-9.3528,-9.3815,-9.3573,-9.3587,-9.3597,-9.3604,-9.4325,-9.4333,0,0,0,0,0,0,-9.2869,-9.2906,-9.3279,-9.3292,-9.3014,-9.3168,-9.3192,-9.3287,-9.3395,-9.3404,-9.3288,-9.3275,-9.3485,-9.351,-9.3535,-9.3859,-9.359,-9.3605,-9.3615,-9.4315,-9.4327,-9.4337,0,0,0,0,0,0,-9.2859,-9.2904,-9.327,-9.3097,-9.3142,-9.3186,-9.3293,-9.3295,-9.3359,-9.3415,-9.3421,-9.3347,-9.348,-9.3512,-9.373,-9.3865,-9.3613,-9.3627,-9.4304,-9.4319,-9.4332,-9.451,0,0,0,0,0,0,-9.2845,-9.2901,-9.3006,-9.3101,-9.3151,-9.3465,-9.3301,-9.3306,-9.3388,-9.3373,-9.3471,-9.3479,-9.3475,-9.3707,-9.3746,-9.3883,-9.364,-9.4292,-9.4311,-9.4327,-9.4493,-9.4529,-9.456,0,0,0,0,0,-9.2827,-9.3047,-9.3012,-9.3058,-9.3285,-9.3473,-9.3502,-9.3495,-9.3399,-9.3505,-9.3541,-9.3476,-9.3844,-9.373,-9.3774,-9.3917,-9.4284,-9.4305,-9.4326,-9.4478,-9.4522,-9.4559,0,0,0,0,0,0,-9.2965,-9.3059,-9.3022,-9.3279,-9.337,-9.3454,-9.3587,-9.3542,-9.366,-9.364,-9.3624,-9.3647,-9.3874,-9.3917,-9.3788,-9.4184,-9.4048,-9.4079,-9.4149,-9.4191,-9.4224,-9.4209,-9.3654,0,0,0,0,0,-9.3026,-9.3174,-9.3246,-9.3466,-9.3514,-9.3543,-9.3624,-9.3612,-9.3703,-9.374,-9.3792,-9.3881,-9.4016,-9.4105,-9.4233,-9.4497,-9.4516,-9.4617,-9.4651,-9.4678,-9.4705,-9.4847,-9.4893,-9.4406,-9.4406,-9.4405,0,0,-9.3152,-9.3222,-9.3316,-9.3496,-9.3564,-9.3715,-9.3576,-9.3741,-9.3852,-9.3764,-9.3974,-9.4015,-9.4113,-9.4355,-9.4464,-9.4398,-9.4844,-9.4705,-9.4727,-9.4739,-9.4873,-9.4919,-9.496,-9.442,-9.4418,-9.4415,0,0,-9.346,-9.3528,-9.3719,-9.3791,-9.3897,-9.3914,-9.396,-9.4052,-9.4076,-9.4287,-9.4224,-9.4353,-9.4587,-9.466,-9.4727,-9.5061,-9.5005,-9.5102,-9.5278,-9.5416,-9.5455,-9.5488,-9.5607,-9.565,-9.5129,-9.5129,-9.513,0,-9.3603,-9.3831,-9.3821,-9.3993,-9.4073,-9.4003,-9.4194,-9.4263,-9.4404,-9.446,-9.4383,-9.4675,-9.4736,-9.4994,-9.5075,-9.5132,-9.5182,-9.5092,-9.545,-9.5484,-9.5516,-9.5628,-9.5673,-9.514,-9.5139,-9.5138,-9.5137,0,-9.4001,-9.416,-9.43,-9.4442,-9.4537,-9.4718,-9.4733,-9.483,-9.4809,-9.4833,-9.5047,-9.5118,-9.5258,-9.5318,-9.5297,-9.5573,-9.5528,-9.5452,-9.5315,-9.5573,-9.5679,-9.5722,-9.5156,-9.5152,-9.5149,-9.5146,0,0,-9.4404,-9.4537,-9.4589,-9.4652,-9.4763,-9.4884,-9.5059,-9.5199,-9.5283,-9.5381,-9.5527,-9.5726,-9.5656,-9.5733,-9.5719,-9.584,-9.61,-9.5749,-9.575,-9.5811,-9.6406,-9.6463,-9.6514,-9.6063,-9.6071,-9.6078,-9.6398,0,-9.4719,-9.503,-9.5026,-9.5313,-9.5458,-9.5392,-9.5545,-9.5628,-9.5655,-9.578,-9.5807,-9.5949,-9.5846,-9.5892,-9.6009,-9.6044,-9.6219,-9.602,-9.6196,-9.6203,-9.6175,-9.6569,-9.6631,-9.6929,-9.6439,-9.6446,-9.6451,0,-9.5129,-9.5245,-9.5547,-9.5636,-9.5697,-9.5835,-9.5962,-9.6083,-9.6174,-9.6185,-9.6271,-9.6238,-9.6413,-9.6271,-9.651,-9.6376,-9.6446,-9.6474,-9.6485,-9.6502,-9.6343,-9.6596,-9.7025,-9.707,-9.6516,-9.6511,-9.6506,0,-9.5393,-9.5623,-9.5834,-9.5889,-9.5999,-9.6097,-9.6146,-9.6229,-9.6313,-9.6423,-9.6477,-9.6605,-9.6675,-9.6773,-9.6774,-9.6671,-9.7016,-9.6874,-9.7028,-9.7029,-9.7105,-9.71,-9.7551,-9.7151,-9.715,-9.7149,-9.7148,0,-9.5746,-9.5933,-9.5953,-9.6083,-9.629,-9.6282,-9.6486,-9.6525,-9.66,-9.6734,-9.6683,-9.6809,-9.6803,-9.6929,-9.6931,-9.7129,-9.716,-9.7172,-9.7171,-9.7178,-9.7176,-9.7225,-9.7204,-9.7161,-9.7158,-9.7156,-9.7154,0,-9.6076,-9.6097,-9.6322,-9.6407,-9.6433,-9.6582,-9.6653,-9.6775,-9.6796,-9.6967,-9.7006,-9.704,-9.7186,-9.7197,-9.7366,-9.7366,-9.7607,-9.7582,-9.7577,-9.7573,-9.7727,-9.7712,-9.8225,-9.8291,-9.7847,-9.7851,-9.7855,0,-9.63,-9.6443,-9.6544,-9.6632,-9.6688,-9.6829,-9.6915,-9.691,-9.7001,-9.7116,-9.7223,-9.7365,-9.7479,-9.7716,-9.7753,-9.7882,-9.786,-9.803,-9.7878,-9.7881,-9.7862,-9.7854,-9.7868,-9.806,-9.8065,-9.8069,-9.8072,0,-9.6696,-9.67,-9.6827,-9.6959,-9.7063,-9.7166,-9.7261,-9.7335,-9.7341,-9.7446,-9.7597,-9.7685,-9.7858,-9.7999,-9.8125,-9.8171,-9.8123,-9.812,-9.8162,-9.8171,-9.8163,-9.8169,-9.7658,-9.8108,-9.8104,-9.8102,-9.81,-9.8098,-9.6981,-9.7104,-9.7195,-9.7338,-9.741,-9.75,-9.7619,-9.7656,-9.7783,-9.7926,-9.7914,-9.8081,-9.8166,-9.833,-9.8387,-9.8514,-9.8456,-9.8518,-9.8534,-9.8549,-9.8565,-9.8142,-9.8537,-9.8536,-9.8535,-9.8534,-9.8533,0,-9.7374,-9.7429,-9.7561,-9.7698,-9.781,-9.7756,-9.7859,-9.7955,-9.8104,-9.8188,-9.8302,-9.8474,-9.861,-9.8659,-9.8791,-9.8884,-9.8865,-9.8918,-9.8912,-9.8923,-9.861,-9.856,-9.8932,-9.8931,-9.8931,-9.8931,-9.8931,-9.8931,-9.7592,-9.7799,-9.7813,-9.8053,-9.8106,-9.8271,-9.8334,-9.8416,-9.8484,-9.868,-9.8794,-9.8825,-9.8895,-9.9031,-9.9153,-9.9163,-9.9214,-9.9277,-9.9278,-9.8985,-9.8945,-9.8907,-9.886,-9.9288,-9.9289,-9.9581,-9.9583,-9.9585]}]]